Regional Weather Roundup
Issued by NWS Sterling, VA

Home | Current Version | Previous Version | Graphics & Text | Print | Product List | Glossary On
Versions: 1 2 3 4 5 6 7 8 9 10 11 12 13 14 15 16 17 18 19 20 21 22 23 24 25 26 27
000
ASUS41 KLWX 261210
RWRLWX

REGIONAL WEATHER ROUNDUP
NATIONAL WEATHER SERVICE BALTIMORE MD/WASHINGTON DC
700 AM EST SUN FEB 26 2017

Note: "FAIR" indicates few or no clouds below 12,000 feet
with no significant weather and/or obstructions to visibility.
 TC=TEMPERATURE CELSIUS

 * =Non NWS site. Station does not report precipitation (e.g. rain,
    snow, etc.), thunder, or fog.

DCZ001-MDZ009-015-VAZ040>042-051-053>054-261300-
WASHINGTON METRO

CITY           SKY/WX    TMP DP  RH WIND       PRES   REMARKS
WASHINGTON NAT PTCLDY    36  16  44 NW12G20   30.07R WCI  28
DULLES         PTCLDY    33  14  45 NW16G24   30.06R WCI  23
ANDREWS AFB    PTCLDY    34  15  46 NW21      30.04R WCI  22
FT BELVOIR     MOCLDY    34  17  50 W3        30.07R
QUANTICO       CLEAR     35  17  47 N10       30.09R WCI  27
COLLEGE PARK*  PTCLDY    34  14  44 NW10G23   30.07R WCI  26
LEESBURG*      CLOUDY    34  19  55 MISG      30.07R
MANASSAS*      CLEAR     30  17  58 NW6       30.08R
GAITHERSBURG*  CLEAR     30  12  47 NW10      30.08R WCI  21

$$

MDZ006>007-011-014-261300-
BALTIMORE METRO

CITY           SKY/WX    TMP DP  RH WIND       PRES   REMARKS
BWI AIRPORT    MOCLDY    35  20  54 NW18G25   30.03R WCI  24
MD SCIENCE CTR   N/A     37  16  42 MISG      30.03R
MARTIN STATE   MOCLDY    36  21  55 W13G18    30.05R WCI  27
ANNAPOLIS      CLOUDY    39  22  50 NW10G21   30.03R
FORT MEADE*    PTCLDY    32  18  55 NW15G25   30.08R WCI  22

$$

MDZ012-015-019>023-261300-
MARYLAND EASTERN SHORE

CITY           SKY/WX    TMP DP  RH WIND       PRES   REMARKS
OCEAN CITY     CLEAR     37  24  59 NW8       30.00R
SALISBURY      CLEAR     37  23  56 NW10      30.01R
BAY BRIDGE AP* CLOUDY    37  21  52 NW15      30.04R WCI  28
CAMBRIDGE*     CLOUDY    37  21  52 W8G14     30.04R
EASTON*        CLOUDY    39  21  48 NW15G21   30.05S

$$

MDZ017>025-261300-
SOUTHERN MARYLAND

CITY           SKY/WX    TMP DP  RH WIND       PRES   REMARKS
PATUXENT RIVER PTCLDY    36  21  54 NW16      30.05R WCI  26
ST INIGOES     CLEAR     37  20  50 NW13G23   30.04R WCI  29
LEONARDTOWN*   CLEAR     34  19  55 W9        30.06R WCI  26

$$

MDZ003>005-261300-
NORTH CENTRAL MARYLAND

CITY           SKY/WX    TMP DP  RH WIND       PRES   REMARKS
FREDERICK*     CLOUDY    32  18  55 NW9G21    30.09R WCI  24
HAGERSTOWN APT MOCLDY    31  14  49 W17       30.03R WCI  19
WESTMINSTER*   CLOUDY    34  19  55 W17       30.01R WCI  23

$$

MDZ501>502-261300-
WESTERN MARYLAND

CITY           SKY/WX    TMP DP  RH WIND       PRES   REMARKS
OAKLAND*       CLOUDY    19  16  86 W12G17    29.93S FOG     WCI   7
CUMBERLAND*    PTCLDY    32  18  55 NW7G16    30.10R

$$

VAZ025>031-261300-
SHENANDOAH VALLEY

CITY           SKY/WX    TMP DP  RH WIND       PRES   REMARKS
WINCHESTER*    MOCLDY    30  14  51 W9        30.05R WCI  22
FRONT ROYAL*   CLEAR     32  16  51 NW8       30.04R WCI  25
LURAY*         CLEAR     32  19  59 SW3       30.04R
NEW MARKET*    CLEAR     27  15  59 CALM      30.04R
STAUNTON*      CLEAR     23  15  71 CALM      30.05R
WAYNESBORO*    CLEAR     28  15  59 W6        30.02R

$$

WVZ021-048>050-054>055-261300-
EASTERN WEST VIRGINIA PANHANDLE

CITY           SKY/WX    TMP DP  RH WIND       PRES   REMARKS
MARTINSBURG    CLEAR     31  13  47 NW21G26   30.04R WCI  18
PETERSBURG*    CLOUDY    33  17  53 W8        30.06S WCI  26

$$

VAZ036>039-050-261300-
CENTRAL FOOTHILLS

CITY           SKY/WX    TMP DP  RH WIND       PRES   REMARKS
CHARLOTTESVILL CLEAR     34  16  47 NW5       30.05R
CULPEPER*      CLEAR     33  17  53 CALM      30.08R
ORANGE*        CLEAR     30  21  69 CALM      30.07R
GORDONSVILLE*  CLEAR     29  21  73 CALM      30.06R
WARRENTON*     CLEAR     32  14  47 N6        30.06R

$$

VAZ055>057-261300-
NORTH AND CENTRAL PIEDMONT

CITY           SKY/WX    TMP DP  RH WIND       PRES   REMARKS
FREDERICKSBRG* CLEAR     34  20  56 CALM      30.07R
STAFFORD*      CLEAR     32  18  55 CALM      30.11R

$$

NCZ024-NYZ072-PAZ021-071-VAZ022-071-261300-
OTHER REGIONAL OBSERVATIONS

CITY           SKY/WX    TMP DP  RH WIND       PRES   REMARKS
NEW YORK CITY  CLOUDY    36  18  48 NW12G24   29.91R WCI  28
PHILADELPHIA   MOCLDY    37  17  44 NW20      29.98R WCI  27
PITTSBURGH     FLURRIES  27  21  78 W8        30.05R WCI  19
ROANOKE        CLEAR     32  15  49 NW9       30.10R WCI  24
RICHMOND       CLEAR     36  23  59 NW7       30.06R
RALEIGH        CLEAR     37  18  46 VRB5      30.11R

$$

ANZ530>537-261300-
MARINE OBSERVATIONS

STATION/POSITION TIME  TEMP    WIND        PRES
                       AIR SEA DIR/SP/G
                 (UTC) (F)     (DEG/KT/KT) (MB)
THOMAS PT LIGHT  1200   37 44  320/ 13/ 15   N/A
BALT KEY BRIDGE  1148   36     290/ 16/ 19 1016.9R
COVE POINT       1148   36     330/ 16/ 23 1017.7R
LEWISETTA        1148   38 50  340/ 16/ 19 1017.3R
SOLOMONS ISLAND  1142   37 45  310/ 10/ 16   N/A
PINEY POINT      1142          340/ 22/ 24   N/A

$$





USA.gov is the U.S. government's official web portal to all federal, state and local government web resources and services.